Location: Moscow
(38.8570°N, 84.2291°W)
Time: 21:18:16
(UTC+00:00)

UKube-1 - Pass Details

Date: 20 March 2026
Orbit: 527 x 530 km, 98.4° (Epoch: 11 April)

Event Time Altitude Azimuth Distance (km) Brightness Sun altitude
Rises 10:17:28 0° 27° (NNE) 2,669 ? -16.8°
Reaches altitude 10° 10:19:52 10° 41° (NE) 1,775 ? -16.4°
Maximum altitude 10:23:03 25° 97° (E) 1,104 ? -15.8°
Drops below altitude 10° 10:26:12 10° 153° (SSE) 1,763 ? -15.2°
Sets 10:28:34 0° 167° (SSE) 2,647 ? -14.7°
